ZIW YPPD-YBGD

Flight info

Callsign ZIW
Flight time 1h 0m
Altitude 10000
Route BUTON
Aircraft DA42/L-SBDGRY/S

Departure

Time 2026-04-28 01:59
Airport Port Hedland International Airport (YPPD)

Arrival

Time 2026-04-28 03:00
Airport Boolgeeda (YBGD)
Time Latitude Longitude Altitude Speed Heading
2026-04-28 01:47 -20.37751 118.63057 29 ft 0 kts 271°
2026-04-28 01:52 -20.37751 118.63056 29 ft 0 kts 271°
2026-04-28 01:53 -20.37751 118.63046 29 ft 2 kts 262°
2026-04-28 01:53 -20.37764 118.63036 29 ft 3 kts 173°
2026-04-28 01:53 -20.37792 118.63036 29 ft 6 kts 185°
2026-04-28 01:53 -20.37836 118.63052 29 ft 6 kts 160°
2026-04-28 01:54 -20.37885 118.63052 30 ft 7 kts 180°
2026-04-28 01:54 -20.37934 118.63042 30 ft 7 kts 221°
2026-04-28 01:54 -20.37962 118.62993 30 ft 9 kts 266°
2026-04-28 01:54 -20.37936 118.62935 30 ft 9 kts 316°
2026-04-28 01:55 -20.37886 118.62887 30 ft 9 kts 317°
2026-04-28 01:55 -20.37835 118.62837 29 ft 10 kts 319°
2026-04-28 01:55 -20.37781 118.62785 29 ft 10 kts 318°
2026-04-28 01:55 -20.37725 118.62731 29 ft 11 kts 316°
2026-04-28 01:56 -20.37668 118.62674 28 ft 11 kts 315°
2026-04-28 01:56 -20.37608 118.62615 28 ft 11 kts 317°
2026-04-28 01:56 -20.37547 118.62556 27 ft 12 kts 317°
2026-04-28 01:56 -20.37486 118.62495 27 ft 12 kts 317°
2026-04-28 01:57 -20.37420 118.62434 26 ft 12 kts 319°
2026-04-28 01:57 -20.37357 118.62370 26 ft 12 kts 318°
2026-04-28 01:57 -20.37310 118.62299 26 ft 11 kts 259°
2026-04-28 01:57 -20.37356 118.62235 26 ft 7 kts 229°
2026-04-28 01:58 -20.37380 118.62208 26 ft 5 kts 229°
2026-04-28 01:58 -20.37405 118.62179 26 ft 5 kts 219°
2026-04-28 01:58 -20.37430 118.62182 26 ft 0 kts 134°
2026-04-28 01:58 -20.37612 118.62360 27 ft 71 kts 137°
2026-04-28 01:59 -20.38065 118.62793 141 ft 90 kts 134°
2026-04-28 01:59 -20.38507 118.63241 445 ft 89 kts 134°
2026-04-28 01:59 -20.38997 118.63687 710 ft 93 kts 137°
2026-04-28 01:59 -20.39331 118.64304 936 ft 102 kts 92°
2026-04-28 02:00 -20.39068 118.64967 1275 ft 103 kts 44°
2026-04-28 02:00 -20.38405 118.65219 1625 ft 108 kts
2026-04-28 02:00 -20.37707 118.64857 1937 ft 119 kts 318°
2026-04-28 02:00 -20.37399 118.64036 2256 ft 126 kts 271°
2026-04-28 02:01 -20.37679 118.63178 2594 ft 125 kts 229°
2026-04-28 02:01 -20.38348 118.62605 2935 ft 123 kts 207°
2026-04-28 02:01 -20.39080 118.62151 3255 ft 124 kts 206°
2026-04-28 02:01 -20.39826 118.61684 3598 ft 124 kts 208°
2026-04-28 02:02 -20.40559 118.61214 3933 ft 124 kts 206°
2026-04-28 02:02 -20.41312 118.60763 4266 ft 124 kts 203°
2026-04-28 02:02 -20.42095 118.60352 4583 ft 125 kts 200°
2026-04-28 02:02 -20.42885 118.59968 4916 ft 126 kts 198°
2026-04-28 02:03 -20.43697 118.59610 5240 ft 126 kts 196°
2026-04-28 02:03 -20.44493 118.59222 5559 ft 130 kts 203°
2026-04-28 02:03 -20.45301 118.58775 5901 ft 128 kts 198°
2026-04-28 02:03 -20.46136 118.58490 6214 ft 129 kts 193°
2026-04-28 02:04 -20.46955 118.58063 6546 ft 132 kts 207°
2026-04-28 02:04 -20.47746 118.57565 6870 ft 133 kts 206°
2026-04-28 02:04 -20.48554 118.57095 7202 ft 133 kts 204°
2026-04-28 02:04 -20.49373 118.56644 7542 ft 131 kts 203°
2026-04-28 02:05 -20.50184 118.56213 7898 ft 129 kts 203°
2026-04-28 02:05 -20.51003 118.55782 8223 ft 131 kts 203°
2026-04-28 02:05 -20.51819 118.55355 8557 ft 131 kts 204°
2026-04-28 02:05 -20.52638 118.54930 8888 ft 131 kts 204°
2026-04-28 02:06 -20.53465 118.54498 9212 ft 132 kts 204°
2026-04-28 02:06 -20.54293 118.54068 9539 ft 132 kts 205°
2026-04-28 02:06 -20.55118 118.53638 9867 ft 132 kts 205°
2026-04-28 02:06 -20.55989 118.53185 9996 ft 149 kts 205°
2026-04-28 02:07 -20.56985 118.52663 10016 ft 165 kts 206°
2026-04-28 02:07 -20.58037 118.52115 10011 ft 173 kts 206°
2026-04-28 02:07 -20.59132 118.51543 10006 ft 177 kts 205°
2026-04-28 02:07 -20.60264 118.50954 10005 ft 180 kts 205°
2026-04-28 02:08 -20.61385 118.50370 10005 ft 181 kts 205°
2026-04-28 02:08 -20.62526 118.49776 10007 ft 183 kts 205°
2026-04-28 02:08 -20.63677 118.49177 10007 ft 184 kts 206°
2026-04-28 02:08 -20.64829 118.48576 10008 ft 184 kts 206°
2026-04-28 02:09 -20.65982 118.47975 10004 ft 184 kts 205°
2026-04-28 02:09 -20.67138 118.47373 10006 ft 184 kts 205°
2026-04-28 02:09 -20.68294 118.46771 10007 ft 184 kts 205°
2026-04-28 02:09 -20.69449 118.46169 10007 ft 184 kts 206°
2026-04-28 02:10 -20.70619 118.45559 10005 ft 184 kts 205°
2026-04-28 02:10 -20.71775 118.44957 10007 ft 184 kts 205°
2026-04-28 02:10 -20.72917 118.44361 10005 ft 184 kts 206°
2026-04-28 02:10 -20.74076 118.43758 10010 ft 184 kts 205°
2026-04-28 02:11 -20.75231 118.43155 10011 ft 184 kts 205°
2026-04-28 02:11 -20.76391 118.42549 10011 ft 185 kts 206°
2026-04-28 02:11 -20.77553 118.41943 10010 ft 185 kts 206°
2026-04-28 02:11 -20.78717 118.41335 10010 ft 185 kts 206°
2026-04-28 02:12 -20.79880 118.40727 10009 ft 185 kts 205°
2026-04-28 02:12 -20.81043 118.40121 10007 ft 185 kts 205°
2026-04-28 02:12 -20.82194 118.39520 10006 ft 185 kts 205°
2026-04-28 02:12 -20.83361 118.38911 10008 ft 185 kts 205°
2026-04-28 02:13 -20.84518 118.38306 10006 ft 185 kts 205°
2026-04-28 02:13 -20.85672 118.37704 9999 ft 185 kts 206°
2026-04-28 02:13 -20.86841 118.37093 10003 ft 185 kts 205°
2026-04-28 02:13 -20.87999 118.36487 10003 ft 185 kts 205°
2026-04-28 02:14 -20.89157 118.35882 10001 ft 185 kts 205°
2026-04-28 02:14 -20.90310 118.35280 10001 ft 185 kts 205°
2026-04-28 02:14 -20.91472 118.34672 10001 ft 185 kts 206°
2026-04-28 02:14 -20.92630 118.34065 10005 ft 185 kts 206°
2026-04-28 02:15 -20.94961 118.32846 10005 ft 185 kts 206°
2026-04-28 02:15 -20.96127 118.32237 10006 ft 185 kts 206°
2026-04-28 02:15 -20.97287 118.31629 10008 ft 186 kts 206°
2026-04-28 02:16 -20.98447 118.31022 10009 ft 186 kts 206°
2026-04-28 02:16 -20.99619 118.30408 10007 ft 186 kts 206°
2026-04-28 02:16 -21.00785 118.29797 10008 ft 186 kts 206°
2026-04-28 02:16 -21.01935 118.29195 10010 ft 186 kts 206°
2026-04-28 02:17 -21.03099 118.28587 10008 ft 185 kts 206°
2026-04-28 02:17 -21.04273 118.27972 10010 ft 185 kts 206°
2026-04-28 02:17 -21.05431 118.27365 10011 ft 185 kts 206°
2026-04-28 02:17 -21.06585 118.26761 10012 ft 185 kts 206°
2026-04-28 02:18 -21.07754 118.26147 10015 ft 185 kts 206°
2026-04-28 02:18 -21.08911 118.25542 10014 ft 185 kts 206°
2026-04-28 02:18 -21.10072 118.24932 10014 ft 186 kts 206°
2026-04-28 02:18 -21.11238 118.24320 10011 ft 186 kts 206°
2026-04-28 02:19 -21.12408 118.23706 10010 ft 186 kts 206°
2026-04-28 02:19 -21.13575 118.23093 10010 ft 185 kts 206°
2026-04-28 02:19 -21.14743 118.22482 10011 ft 186 kts 206°
2026-04-28 02:19 -21.15894 118.21878 10012 ft 186 kts 206°
2026-04-28 02:20 -21.17064 118.21264 10015 ft 186 kts 206°
2026-04-28 02:20 -21.18235 118.20649 10016 ft 187 kts 206°
2026-04-28 02:20 -21.19409 118.20033 10016 ft 188 kts 206°
2026-04-28 02:20 -21.20589 118.19411 10017 ft 189 kts 206°
2026-04-28 02:21 -21.21761 118.18797 10017 ft 189 kts 206°
2026-04-28 02:21 -21.22946 118.18175 10018 ft 189 kts 206°
2026-04-28 02:21 -21.24128 118.17552 10016 ft 188 kts 206°
2026-04-28 02:21 -21.25322 118.16924 10015 ft 189 kts 206°
2026-04-28 02:22 -21.26505 118.16302 10018 ft 189 kts 206°
2026-04-28 02:22 -21.27685 118.15681 10020 ft 189 kts 206°
2026-04-28 02:22 -21.28866 118.15061 10023 ft 189 kts 206°
2026-04-28 02:22 -21.30052 118.14438 10020 ft 189 kts 206°
2026-04-28 02:23 -21.31233 118.13818 10018 ft 189 kts 206°
2026-04-28 02:23 -21.32424 118.13191 10021 ft 189 kts 206°
2026-04-28 02:23 -21.33612 118.12566 10025 ft 189 kts 206°
2026-04-28 02:23 -21.34788 118.11946 10027 ft 189 kts 206°
2026-04-28 02:24 -21.35977 118.11320 10023 ft 189 kts 206°
2026-04-28 02:24 -21.37160 118.10697 10023 ft 189 kts 206°
2026-04-28 02:24 -21.38341 118.10075 10026 ft 189 kts 206°
2026-04-28 02:24 -21.39529 118.09450 10027 ft 189 kts 206°
2026-04-28 02:25 -21.40717 118.08823 10030 ft 189 kts 206°
2026-04-28 02:25 -21.41861 118.08124 10031 ft 189 kts 214°
2026-04-28 02:25 -21.42958 118.07345 10032 ft 189 kts 214°
2026-04-28 02:25 -21.44056 118.06555 10034 ft 189 kts 214°
2026-04-28 02:26 -21.45153 118.05769 10035 ft 189 kts 215°
2026-04-28 02:26 -21.46245 118.04984 10039 ft 189 kts 215°
2026-04-28 02:26 -21.47348 118.04192 10040 ft 189 kts 214°
2026-04-28 02:26 -21.48447 118.03403 10039 ft 190 kts 215°
2026-04-28 02:27 -21.49544 118.02616 10040 ft 189 kts 214°
2026-04-28 02:27 -21.50642 118.01828 10042 ft 189 kts 215°
2026-04-28 02:27 -21.51729 118.01048 10044 ft 189 kts 214°
2026-04-28 02:27 -21.52828 118.00259 10046 ft 189 kts 214°
2026-04-28 02:28 -21.53946 117.99457 9954 ft 194 kts 215°
2026-04-28 02:28 -21.55063 117.98654 9936 ft 192 kts 214°
2026-04-28 02:28 -21.56172 117.97858 9933 ft 191 kts 214°
2026-04-28 02:28 -21.57289 117.97056 9937 ft 191 kts 214°
2026-04-28 02:29 -21.58396 117.96260 9955 ft 190 kts 214°
2026-04-28 02:29 -21.59494 117.95473 9964 ft 190 kts 214°
2026-04-28 02:29 -21.60601 117.94679 9968 ft 190 kts 214°
2026-04-28 02:29 -21.61693 117.93894 9968 ft 190 kts 214°
2026-04-28 02:30 -21.62794 117.93103 9969 ft 190 kts 215°
2026-04-28 02:30 -21.63896 117.92310 9972 ft 189 kts 214°
2026-04-28 02:30 -21.64998 117.91518 9975 ft 190 kts 214°
2026-04-28 02:30 -21.66096 117.90728 9974 ft 190 kts 214°
2026-04-28 02:31 -21.67199 117.89934 9974 ft 190 kts 215°
2026-04-28 02:31 -21.68290 117.89150 9975 ft 190 kts 214°
2026-04-28 02:31 -21.69391 117.88357 9964 ft 190 kts 214°
2026-04-28 02:31 -21.70502 117.87558 9945 ft 191 kts 214°
2026-04-28 02:32 -21.71613 117.86757 9939 ft 191 kts 214°
2026-04-28 02:32 -21.72721 117.85960 9937 ft 191 kts 214°
2026-04-28 02:32 -21.73829 117.85163 9939 ft 191 kts 215°
2026-04-28 02:32 -21.74935 117.84367 9939 ft 191 kts 215°
2026-04-28 02:33 -21.76036 117.83574 9942 ft 190 kts 215°
2026-04-28 02:33 -21.77138 117.82780 9945 ft 190 kts 215°
2026-04-28 02:33 -21.78237 117.81987 9948 ft 190 kts 215°
2026-04-28 02:33 -21.79337 117.81195 9951 ft 190 kts 215°
2026-04-28 02:34 -21.80447 117.80395 9956 ft 190 kts 215°
2026-04-28 02:34 -21.81545 117.79604 9956 ft 190 kts 215°
2026-04-28 02:34 -21.82639 117.78813 9958 ft 190 kts 215°
2026-04-28 02:34 -21.83749 117.78012 9957 ft 190 kts 215°
2026-04-28 02:35 -21.84845 117.77222 9960 ft 191 kts 214°
2026-04-28 02:35 -21.85942 117.76429 9966 ft 191 kts 214°
2026-04-28 02:35 -21.87054 117.75628 9969 ft 191 kts 215°
2026-04-28 02:35 -21.88156 117.74834 9973 ft 191 kts 215°
2026-04-28 02:36 -21.89273 117.74026 9974 ft 191 kts 215°
2026-04-28 02:36 -21.90376 117.73231 9974 ft 191 kts 215°
2026-04-28 02:36 -21.91474 117.72437 9974 ft 191 kts 215°
2026-04-28 02:36 -21.92576 117.71639 9976 ft 190 kts 215°
2026-04-28 02:37 -21.93681 117.70842 9980 ft 190 kts 215°
2026-04-28 02:37 -21.94782 117.70046 9979 ft 190 kts 215°
2026-04-28 02:37 -21.95885 117.69249 9981 ft 190 kts 215°
2026-04-28 02:37 -21.96987 117.68453 9985 ft 191 kts 215°
2026-04-28 02:38 -21.98103 117.67646 9983 ft 191 kts 215°
2026-04-28 02:38 -21.99204 117.66850 9983 ft 191 kts 215°
2026-04-28 02:38 -22.00304 117.66055 9987 ft 191 kts 215°
2026-04-28 02:38 -22.01420 117.65247 9988 ft 191 kts 215°
2026-04-28 02:39 -22.02521 117.64449 9988 ft 191 kts 215°
2026-04-28 02:39 -22.03623 117.63651 9987 ft 191 kts 216°
2026-04-28 02:39 -22.04543 117.62640 9989 ft 189 kts 231°
2026-04-28 02:39 -22.05381 117.61546 9988 ft 189 kts 233°
2026-04-28 02:40 -22.06208 117.60430 9988 ft 188 kts 234°
2026-04-28 02:40 -22.07019 117.59325 9988 ft 188 kts 234°
2026-04-28 02:40 -22.07828 117.58218 9989 ft 188 kts 234°
2026-04-28 02:40 -22.08646 117.57095 9988 ft 189 kts 234°
2026-04-28 02:41 -22.09452 117.55986 9988 ft 188 kts 235°
2026-04-28 02:41 -22.10258 117.54879 9986 ft 189 kts 235°
2026-04-28 02:41 -22.11072 117.53754 9983 ft 188 kts 235°
2026-04-28 02:41 -22.11874 117.52647 9981 ft 188 kts 235°
2026-04-28 02:42 -22.12678 117.51536 9982 ft 188 kts 235°
2026-04-28 02:42 -22.13493 117.50409 9982 ft 188 kts 235°
2026-04-28 02:42 -22.14297 117.49300 9984 ft 188 kts 234°
2026-04-28 02:42 -22.15101 117.48192 9983 ft 188 kts 235°
2026-04-28 02:43 -22.15911 117.47073 9983 ft 188 kts 235°
2026-04-28 02:43 -22.16707 117.45971 10003 ft 187 kts 234°
2026-04-28 02:43 -22.17505 117.44872 10009 ft 187 kts 235°
2026-04-28 02:43 -22.18311 117.43757 10008 ft 187 kts 235°
2026-04-28 02:44 -22.19116 117.42646 10008 ft 187 kts 235°
2026-04-28 02:44 -22.19920 117.41533 10011 ft 188 kts 235°
2026-04-28 02:44 -22.20725 117.40421 10010 ft 188 kts 235°
2026-04-28 02:44 -22.21520 117.39320 10008 ft 188 kts 236°
2026-04-28 02:45 -22.22335 117.38193 10010 ft 188 kts 236°
2026-04-28 02:45 -22.23131 117.37091 10008 ft 188 kts 236°
2026-04-28 02:45 -22.23933 117.35980 10007 ft 188 kts 235°
2026-04-28 02:45 -22.24741 117.34862 10007 ft 188 kts 236°
2026-04-28 02:46 -22.25545 117.33747 10006 ft 187 kts 235°
2026-04-28 02:46 -22.26350 117.32633 10006 ft 187 kts 235°
2026-04-28 02:46 -22.27150 117.31525 10008 ft 187 kts 236°
2026-04-28 02:46 -22.27953 117.30414 10008 ft 187 kts 236°
2026-04-28 02:47 -22.28749 117.29311 10009 ft 187 kts 236°
2026-04-28 02:47 -22.29557 117.28191 10007 ft 188 kts 236°
2026-04-28 02:47 -22.30360 117.27078 10008 ft 188 kts 236°
2026-04-28 02:47 -22.31159 117.25971 10009 ft 188 kts 236°
2026-04-28 02:48 -22.31989 117.24818 9843 ft 197 kts 236°
2026-04-28 02:48 -22.32839 117.23635 9659 ft 202 kts 236°
2026-04-28 02:48 -22.33705 117.22433 9471 ft 205 kts 236°
2026-04-28 02:48 -22.34590 117.21204 9283 ft 207 kts 236°
2026-04-28 02:49 -22.35479 117.19971 9090 ft 207 kts 235°
2026-04-28 02:49 -22.36356 117.18754 8883 ft 209 kts 235°
2026-04-28 02:49 -22.37258 117.17504 8644 ft 211 kts 235°
2026-04-28 02:49 -22.38164 117.16245 8405 ft 211 kts 235°
2026-04-28 02:50 -22.39063 117.14996 8169 ft 212 kts 235°
2026-04-28 02:50 -22.39977 117.13726 7931 ft 212 kts 235°
2026-04-28 02:50 -22.40879 117.12470 7693 ft 212 kts 234°
2026-04-28 02:50 -22.41788 117.11208 7456 ft 212 kts 235°
2026-04-28 02:51 -22.42693 117.09950 7213 ft 211 kts 235°
2026-04-28 02:51 -22.43597 117.08691 6972 ft 210 kts 235°
2026-04-28 02:51 -22.44492 117.07447 6734 ft 210 kts 234°
2026-04-28 02:51 -22.45398 117.06184 6494 ft 210 kts 234°
2026-04-28 02:52 -22.46293 117.04937 6255 ft 210 kts 234°
2026-04-28 02:52 -22.47193 117.03682 6017 ft 211 kts 234°
2026-04-28 02:52 -22.48335 117.02736 5751 ft 214 kts 196°
2026-04-28 02:52 -22.49785 117.02814 5499 ft 207 kts 154°
2026-04-28 02:53 -22.51054 117.03493 5408 ft 198 kts 150°
2026-04-28 02:53 -22.52264 117.04157 5411 ft 190 kts 149°
2026-04-28 02:53 -22.53440 117.04774 5414 ft 186 kts 149°
2026-04-28 02:53 -22.54619 117.05386 5415 ft 185 kts 149°
2026-04-28 02:54 -22.55477 117.06307 5405 ft 170 kts 104°
2026-04-28 02:54 -22.55620 117.07531 5417 ft 164 kts 85°
2026-04-28 02:54 -22.55580 117.08762 5416 ft 163 kts 82°
2026-04-28 02:54 -22.55493 117.09989 5419 ft 163 kts 81°
2026-04-28 02:55 -22.55420 117.11189 5165 ft 152 kts 83°
2026-04-28 02:55 -22.55376 117.12231 4687 ft 132 kts 81°
2026-04-28 02:55 -22.55292 117.13187 4235 ft 133 kts 79°
2026-04-28 02:55 -22.55189 117.14195 3940 ft 135 kts 80°
2026-04-28 02:56 -22.55094 117.15227 3676 ft 140 kts 79°
2026-04-28 02:56 -22.55007 117.16256 3549 ft 134 kts 82°
2026-04-28 02:56 -22.54929 117.17281 3358 ft 136 kts 80°
2026-04-28 02:56 -22.54833 117.18281 3209 ft 135 kts 79°
2026-04-28 02:57 -22.54744 117.19287 3078 ft 133 kts 79°
2026-04-28 02:57 -22.54625 117.20280 2913 ft 136 kts 80°
2026-04-28 02:57 -22.54550 117.21312 2706 ft 130 kts 81°
2026-04-28 02:57 -22.54473 117.22176 2538 ft 102 kts 79°
2026-04-28 02:58 -22.54408 117.22898 2435 ft 95 kts 79°
2026-04-28 02:58 -22.54343 117.23583 2317 ft 92 kts 79°
2026-04-28 02:58 -22.54275 117.24276 2193 ft 92 kts 78°
2026-04-28 02:58 -22.54206 117.24968 2081 ft 92 kts 79°
2026-04-28 02:59 -22.54147 117.25643 1977 ft 91 kts 78°
2026-04-28 02:59 -22.54090 117.26331 1896 ft 89 kts 79°
2026-04-28 02:59 -22.54030 117.26984 1865 ft 86 kts 79°
2026-04-28 02:59 -22.53978 117.27533 1860 ft 61 kts 82°
2026-04-28 03:00 -22.53943 117.27902 1865 ft 37 kts 84°
2026-04-28 03:00 -22.54050 117.28020 1865 ft 22 kts 175°
2026-04-28 03:00 -22.54156 117.28086 1865 ft 14 kts 86°
2026-04-28 03:00 -22.54133 117.28108 1865 ft 0 kts 262°